RYR4SD EBCI-EGCC

Flight info

Callsign RYR4SD
Flight time 1h 2m
Altitude 38000
Route CIV UY50 LUMEN L610 LAM UN57 WELIN T420 ELVOS
Aircraft B738/M-SDE2E3FGHIRWXY/LB1

Departure

Time 2026-05-04 13:28
Airport Brussels South Charleroi Airport (EBCI)

Arrival

Time 2026-05-04 14:30
Airport Manchester Airport (EGCC)
Time Latitude Longitude Altitude Speed Heading
2026-05-04 13:07 50.46869 4.47099 584 ft 0 kts 335°
2026-05-04 13:20 50.46868 4.47100 584 ft 2 kts 335°
2026-05-04 13:20 50.46844 4.47112 584 ft 4 kts 358°
2026-05-04 13:21 50.46820 4.47105 584 ft 4 kts 37°
2026-05-04 13:21 50.46803 4.47074 584 ft 4 kts 64°
2026-05-04 13:21 50.46800 4.47063 584 ft 1 kts 66°
2026-05-04 13:24 50.46800 4.47064 584 ft 1 kts 66°
2026-05-04 13:25 50.46840 4.47205 584 ft 11 kts 65°
2026-05-04 13:25 50.46873 4.47314 584 ft 11 kts 64°
2026-05-04 13:25 50.46907 4.47424 584 ft 11 kts 66°
2026-05-04 13:25 50.46934 4.47536 585 ft 11 kts 84°
2026-05-04 13:26 50.46919 4.47592 587 ft 3 kts 136°
2026-05-04 13:26 50.46902 4.47611 588 ft 3 kts 148°
2026-05-04 13:26 50.46879 4.47630 589 ft 4 kts 154°
2026-05-04 13:26 50.46854 4.47647 590 ft 4 kts 156°
2026-05-04 13:27 50.46802 4.47685 593 ft 13 kts 155°
2026-05-04 13:27 50.46726 4.47734 593 ft 12 kts 180°
2026-05-04 13:27 50.46670 4.47640 592 ft 0 kts 245°
2026-05-04 13:27 50.46669 4.47639 592 ft 2 kts 245°
2026-05-04 13:28 50.46572 4.47306 595 ft 68 kts 245°
2026-05-04 13:28 50.46279 4.46299 588 ft 131 kts 245°
2026-05-04 13:28 50.45846 4.44805 776 ft 162 kts 245°
2026-05-04 13:28 50.45395 4.43175 1514 ft 161 kts 245°
2026-05-04 13:29 50.44932 4.41581 2254 ft 162 kts 245°
2026-05-04 13:29 50.44443 4.39905 2629 ft 183 kts 245°
2026-05-04 13:29 50.43873 4.37942 2853 ft 209 kts 245°
2026-05-04 13:29 50.43239 4.35755 3045 ft 231 kts 245°
2026-05-04 13:30 50.42546 4.33363 3262 ft 254 kts 245°
2026-05-04 13:30 50.41800 4.30788 3896 ft 260 kts 245°
2026-05-04 13:30 50.41065 4.28208 4600 ft 264 kts 249°
2026-05-04 13:30 50.40870 4.25335 5246 ft 270 kts 282°
2026-05-04 13:31 50.41574 4.22634 6000 ft 271 kts 300°
2026-05-04 13:31 50.42574 4.20100 6703 ft 275 kts 304°
2026-05-04 13:31 50.43903 4.17933 7407 ft 278 kts 323°
2026-05-04 13:31 50.45468 4.16181 7998 ft 281 kts 325°
2026-05-04 13:32 50.47103 4.14415 8730 ft 284 kts 325°
2026-05-04 13:32 50.48723 4.12655 9523 ft 286 kts 325°
2026-05-04 13:32 50.50377 4.10836 10253 ft 291 kts 324°
2026-05-04 13:32 50.52073 4.08946 10493 ft 314 kts 324°
2026-05-04 13:33 50.53930 4.06857 10715 ft 335 kts 324°
2026-05-04 13:33 50.55832 4.04702 11245 ft 344 kts 324°
2026-05-04 13:33 50.57788 4.02472 11972 ft 347 kts 324°
2026-05-04 13:33 50.59761 4.00216 12685 ft 352 kts 323°
2026-05-04 13:34 50.61761 3.97923 13435 ft 356 kts 323°
2026-05-04 13:34 50.63754 3.95631 14158 ft 360 kts 323°
2026-05-04 13:34 50.65792 3.93287 14861 ft 364 kts 323°
2026-05-04 13:34 50.67832 3.90936 15588 ft 367 kts 323°
2026-05-04 13:35 50.69906 3.88544 16298 ft 371 kts 323°
2026-05-04 13:35 50.74115 3.83679 17674 ft 380 kts 323°
2026-05-04 13:35 50.76261 3.81195 18356 ft 384 kts 323°
2026-05-04 13:36 50.78437 3.78672 18952 ft 387 kts 323°
2026-05-04 13:36 50.80605 3.76156 19549 ft 391 kts 323°
2026-05-04 13:36 50.82803 3.73602 20214 ft 392 kts 322°
2026-05-04 13:36 50.84989 3.71059 20826 ft 395 kts 322°
2026-05-04 13:37 50.87223 3.68459 21330 ft 401 kts 322°
2026-05-04 13:37 50.89487 3.65819 21861 ft 405 kts 322°
2026-05-04 13:37 50.91855 3.63331 22399 ft 411 kts 329°
2026-05-04 13:37 50.93586 3.62032 22749 ft 415 kts 335°
2026-05-04 13:38 50.97170 3.59761 23448 ft 421 kts 336°
2026-05-04 13:38 50.99918 3.58065 23878 ft 425 kts 336°
2026-05-04 13:38 51.02683 3.56343 24306 ft 428 kts 336°
2026-05-04 13:38 51.05463 3.54585 24729 ft 432 kts 336°
2026-05-04 13:39 51.08249 3.52801 25147 ft 435 kts 335°
2026-05-04 13:39 51.11071 3.50980 25566 ft 438 kts 335°
2026-05-04 13:39 51.13897 3.49149 25963 ft 442 kts 335°
2026-05-04 13:39 51.16765 3.47288 26357 ft 445 kts 335°
2026-05-04 13:40 51.19651 3.45416 26740 ft 449 kts 335°
2026-05-04 13:40 51.22555 3.43488 27113 ft 451 kts 331°
2026-05-04 13:40 51.25088 3.40695 27424 ft 447 kts 310°
2026-05-04 13:40 51.26959 3.36771 27844 ft 441 kts 295°
2026-05-04 13:41 51.28120 3.32280 28232 ft 435 kts 279°
2026-05-04 13:41 51.28764 3.27544 28617 ft 435 kts 277°
2026-05-04 13:41 51.29332 3.22821 29012 ft 437 kts 276°
2026-05-04 13:42 51.30480 3.13229 29813 ft 440 kts 276°
2026-05-04 13:42 51.31072 3.08450 30104 ft 443 kts 276°
2026-05-04 13:42 51.31686 3.03585 30374 ft 445 kts 276°
2026-05-04 13:42 51.32307 2.98704 30696 ft 446 kts 276°
2026-05-04 13:43 51.32910 2.93977 31092 ft 445 kts 276°
2026-05-04 13:43 51.33479 2.89501 31523 ft 442 kts 276°
2026-05-04 13:43 51.34088 2.84687 31999 ft 439 kts 276°
2026-05-04 13:43 51.34691 2.79885 32358 ft 439 kts 276°
2026-05-04 13:44 51.35284 2.75142 32700 ft 438 kts 276°
2026-05-04 13:44 51.35877 2.70357 33103 ft 436 kts 276°
2026-05-04 13:44 51.36461 2.65595 33537 ft 434 kts 276°
2026-05-04 13:44 51.37040 2.60855 33946 ft 432 kts 276°
2026-05-04 13:45 51.37607 2.56189 34241 ft 432 kts 276°
2026-05-04 13:45 51.38180 2.51456 34462 ft 433 kts 276°
2026-05-04 13:45 51.38755 2.46696 34682 ft 434 kts 276°
2026-05-04 13:45 51.39323 2.41983 34944 ft 434 kts 276°
2026-05-04 13:46 51.39894 2.37238 35207 ft 434 kts 276°
2026-05-04 13:46 51.40467 2.32457 35375 ft 436 kts 277°
2026-05-04 13:46 51.41037 2.27676 35589 ft 437 kts 277°
2026-05-04 13:46 51.41606 2.22939 35857 ft 437 kts 277°
2026-05-04 13:47 51.42190 2.18156 36109 ft 437 kts 277°
2026-05-04 13:47 51.42776 2.13378 36319 ft 437 kts 277°
2026-05-04 13:47 51.43366 2.08560 36537 ft 438 kts 277°
2026-05-04 13:47 51.43950 2.03748 36766 ft 438 kts 277°
2026-05-04 13:48 51.44521 1.99010 36990 ft 438 kts 277°
2026-05-04 13:48 51.45094 1.94211 37199 ft 439 kts 277°
2026-05-04 13:48 51.45670 1.89361 37398 ft 440 kts 278°
2026-05-04 13:48 51.46237 1.84533 37523 ft 442 kts 277°
2026-05-04 13:49 51.46795 1.79686 37725 ft 442 kts 277°
2026-05-04 13:49 51.47349 1.74833 37977 ft 441 kts 277°
2026-05-04 13:49 51.48454 1.65139 38006 ft 445 kts 277°
2026-05-04 13:50 51.49349 1.57249 37995 ft 442 kts 277°
2026-05-04 13:50 51.50408 1.47876 38004 ft 438 kts 277°
2026-05-04 13:51 51.51485 1.38265 38000 ft 436 kts 277°
2026-05-04 13:51 51.52551 1.28676 38024 ft 439 kts 277°
2026-05-04 13:52 51.54167 1.14006 38019 ft 447 kts 277°
2026-05-04 13:53 51.55242 1.04190 38014 ft 450 kts 277°
2026-05-04 13:53 51.56322 0.94265 38018 ft 450 kts 277°
2026-05-04 13:54 51.57910 0.79399 38020 ft 450 kts 277°
2026-05-04 13:55 51.59483 0.64532 38019 ft 448 kts 277°
2026-05-04 13:55 51.61132 0.49771 38018 ft 445 kts 277°
2026-05-04 13:56 51.62106 0.40007 38010 ft 444 kts 277°
2026-05-04 13:57 51.63586 0.25297 38017 ft 442 kts 277°
2026-05-04 13:58 51.68910 0.07771 38028 ft 449 kts 313°
2026-05-04 13:58 51.75129 -0.02236 38073 ft 452 kts 314°
2026-05-04 13:59 51.77365 -0.05849 37707 ft 459 kts 313°
2026-05-04 13:59 51.78861 -0.08287 37408 ft 459 kts 313°
2026-05-04 13:59 51.84048 -0.16836 36096 ft 454 kts 313°
2026-05-04 14:00 51.85514 -0.19268 35776 ft 453 kts 313°
2026-05-04 14:00 51.89724 -0.26271 34968 ft 445 kts 313°
2026-05-04 14:00 51.92564 -0.31004 34421 ft 440 kts 313°
2026-05-04 14:01 51.94002 -0.33404 34141 ft 438 kts 312°
2026-05-04 14:01 51.96095 -0.36901 33686 ft 434 kts 312°
2026-05-04 14:01 52.00272 -0.43892 32840 ft 425 kts 312°
2026-05-04 14:02 52.02325 -0.47335 32407 ft 421 kts 311°
2026-05-04 14:02 52.04326 -0.50696 32035 ft 417 kts 311°
2026-05-04 14:02 52.06332 -0.54071 31641 ft 413 kts 311°
2026-05-04 14:02 52.08346 -0.57463 31249 ft 410 kts 311°
2026-05-04 14:03 52.10298 -0.60757 30868 ft 406 kts 311°
2026-05-04 14:03 52.12245 -0.64047 30499 ft 403 kts 311°
2026-05-04 14:03 52.14183 -0.67326 30117 ft 399 kts 310°
2026-05-04 14:03 52.16109 -0.70588 29681 ft 396 kts 310°
2026-05-04 14:04 52.19881 -0.76990 28898 ft 387 kts 310°
2026-05-04 14:04 52.21737 -0.80145 28499 ft 383 kts 310°
2026-05-04 14:04 52.23546 -0.83221 28110 ft 379 kts 311°
2026-05-04 14:05 52.27736 -0.88393 27338 ft 377 kts 326°
2026-05-04 14:05 52.29988 -0.90581 26955 ft 374 kts 327°
2026-05-04 14:05 52.32203 -0.92718 26579 ft 372 kts 327°
2026-05-04 14:06 52.34421 -0.94877 26205 ft 369 kts 327°
2026-05-04 14:06 52.36617 -0.97037 25835 ft 366 kts 326°
2026-05-04 14:06 52.38798 -0.99200 25471 ft 364 kts 326°
2026-05-04 14:06 52.40938 -1.01334 25097 ft 362 kts 327°
2026-05-04 14:07 52.43099 -1.03491 24730 ft 360 kts 327°
2026-05-04 14:07 52.45216 -1.05607 24374 ft 359 kts 327°
2026-05-04 14:07 52.47346 -1.07739 24003 ft 357 kts 327°
2026-05-04 14:07 52.49468 -1.09868 23648 ft 356 kts 326°
2026-05-04 14:08 52.51574 -1.12000 23238 ft 354 kts 326°
2026-05-04 14:08 52.53661 -1.14120 22847 ft 352 kts 326°
2026-05-04 14:08 52.55737 -1.16228 22490 ft 348 kts 326°
2026-05-04 14:08 52.57796 -1.18316 22114 ft 346 kts 327°
2026-05-04 14:09 52.61915 -1.22487 21003 ft 352 kts 327°
2026-05-04 14:09 52.63996 -1.24596 20638 ft 350 kts 327°
2026-05-04 14:10 52.68077 -1.28738 19678 ft 343 kts 327°
2026-05-04 14:10 52.70115 -1.30813 19237 ft 344 kts 327°
2026-05-04 14:10 52.72143 -1.32875 18947 ft 340 kts 327°
2026-05-04 14:10 52.74152 -1.34919 18684 ft 337 kts 327°
2026-05-04 14:11 52.76128 -1.36929 18339 ft 336 kts 327°
2026-05-04 14:11 52.80066 -1.40945 17621 ft 330 kts 327°
2026-05-04 14:11 52.82017 -1.42938 17234 ft 328 kts 327°
2026-05-04 14:12 52.83953 -1.44919 16858 ft 326 kts 327°
2026-05-04 14:12 52.85881 -1.46893 16492 ft 324 kts 327°
2026-05-04 14:12 52.89670 -1.50778 15745 ft 317 kts 327°
2026-05-04 14:13 52.91540 -1.52699 15149 ft 315 kts 327°
2026-05-04 14:13 52.93410 -1.54622 14552 ft 315 kts 327°
2026-05-04 14:13 52.95268 -1.56536 14020 ft 312 kts 327°
2026-05-04 14:13 52.97104 -1.58428 13469 ft 309 kts 327°
2026-05-04 14:14 52.98912 -1.60291 13026 ft 302 kts 327°
2026-05-04 14:14 53.02342 -1.63832 12362 ft 285 kts 327°
2026-05-04 14:14 53.04004 -1.65563 12051 ft 279 kts 324°
2026-05-04 14:15 53.05965 -1.70777 11519 ft 273 kts 282°
2026-05-04 14:15 53.06804 -1.77296 10889 ft 294 kts 281°
2026-05-04 14:16 53.07633 -1.83920 10314 ft 288 kts 281°
2026-05-04 14:16 53.08041 -1.87137 10176 ft 280 kts 281°
2026-05-04 14:17 53.08906 -1.93275 9696 ft 273 kts 293°
2026-05-04 14:17 53.10030 -1.95779 9412 ft 271 kts 321°
2026-05-04 14:17 53.13607 -1.96951 8902 ft 274 kts 15°
2026-05-04 14:18 53.15300 -1.95481 8650 ft 276 kts 36°
2026-05-04 14:18 53.18246 -1.91349 8163 ft 281 kts 40°
2026-05-04 14:19 53.21172 -1.87124 7646 ft 277 kts 40°
2026-05-04 14:19 53.22637 -1.85026 7388 ft 274 kts 39°
2026-05-04 14:19 53.26324 -1.79775 6754 ft 267 kts 40°
2026-05-04 14:19 53.29287 -1.75567 6202 ft 263 kts 40°
2026-05-04 14:20 53.30685 -1.73580 5941 ft 261 kts 40°
2026-05-04 14:20 53.32055 -1.71630 5681 ft 259 kts 40°
2026-05-04 14:20 53.33414 -1.69697 5424 ft 257 kts 39°
2026-05-04 14:21 53.36684 -1.68285 4892 ft 252 kts 342°
2026-05-04 14:21 53.38234 -1.69613 4650 ft 248 kts 323°
2026-05-04 14:21 53.39569 -1.71407 4397 ft 246 kts 320°
2026-05-04 14:21 53.40869 -1.73243 4114 ft 240 kts 319°
2026-05-04 14:22 53.42124 -1.74998 3859 ft 234 kts 320°
2026-05-04 14:22 53.43370 -1.76722 3609 ft 227 kts 320°
2026-05-04 14:22 53.44558 -1.78356 3514 ft 217 kts 320°
2026-05-04 14:22 53.45694 -1.79915 3508 ft 208 kts 320°
2026-05-04 14:23 53.46947 -1.84032 3502 ft 206 kts 279°
2026-05-04 14:23 53.47202 -1.86405 3495 ft 208 kts 280°
2026-05-04 14:23 53.47462 -1.88779 3498 ft 209 kts 280°
2026-05-04 14:24 53.47719 -1.91169 3502 ft 203 kts 280°
2026-05-04 14:24 53.47958 -1.93405 3482 ft 186 kts 280°
2026-05-04 14:24 53.48119 -1.94920 3464 ft 175 kts 280°
2026-05-04 14:24 53.48291 -1.96535 3481 ft 171 kts 280°
2026-05-04 14:25 53.48497 -1.98473 3478 ft 170 kts 279°
2026-05-04 14:25 53.47676 -2.01968 3499 ft 168 kts 235°
2026-05-04 14:25 53.46987 -2.03550 3500 ft 171 kts 233°
2026-05-04 14:26 53.46249 -2.05131 3449 ft 169 kts 232°
2026-05-04 14:26 53.45531 -2.06624 3272 ft 157 kts 231°
2026-05-04 14:26 53.44848 -2.08031 3032 ft 156 kts 231°
2026-05-04 14:26 53.44165 -2.09431 2817 ft 153 kts 231°
2026-05-04 14:27 53.43492 -2.10813 2618 ft 152 kts 231°
2026-05-04 14:27 53.42819 -2.12195 2428 ft 152 kts 231°
2026-05-04 14:27 53.42156 -2.13557 2215 ft 153 kts 231°
2026-05-04 14:27 53.41485 -2.14935 2006 ft 152 kts 231°
2026-05-04 14:28 53.40822 -2.16294 1811 ft 152 kts 231°
2026-05-04 14:28 53.40150 -2.17666 1604 ft 152 kts 231°
2026-05-04 14:28 53.39486 -2.19054 1380 ft 152 kts 231°
2026-05-04 14:28 53.38820 -2.20411 1181 ft 150 kts 230°
2026-05-04 14:29 53.37511 -2.23108 759 ft 148 kts 231°
2026-05-04 14:29 53.36219 -2.25756 330 ft 145 kts 230°
2026-05-04 14:30 53.35610 -2.27009 258 ft 123 kts 231°
2026-05-04 14:30 53.35212 -2.27832 237 ft 60 kts 231°
2026-05-04 14:30 53.35122 -2.28179 230 ft 11 kts 324°
2026-05-04 14:31 53.35186 -2.28200 229 ft 0 kts
2026-05-04 14:31 53.35210 -2.28196 230 ft 6 kts
2026-05-04 14:32 53.35335 -2.28116 236 ft 11 kts 44°
2026-05-04 14:32 53.35346 -2.28097 235 ft 6 kts 45°